Regional Weather Roundup
Issued by NWS

Home | Current Version | Previous Version | Graphics & Text | Print | Product List | Glossary On
Versions: 1 2 3 4 5 6 7 8 9 10 11 12 13 14 15 16 17 18 19 20 21 22 23 24 25 26 27 28 29 30 31 32 33 34 35 36 37 38 39 40 41 42 43 44 45 46 47 48 49 50
000
ASUS43 KMPX 300810
RWRMN
WEATHER ROUNDUP FOR MINNESOTA
NATIONAL WEATHER SERVICE TWIN CITIES/CHANHASSEN MN
300 AM CDT THU JUL 30 2015


NOTE: "FAIR" INDICATES FEW OR NO CLOUDS BELOW 12,000 FEET WITH NO
SIGNIFICANT WEATHER AND/OR OBSTRUCTIONS TO VISIBILITY. N/A MEANS
CURRENT SKY AND/OR WEATHER CONDITIONS ARE NOT AVAILABLE.

MNZ060>063-068>070-300900-
   Twin Cities Metro

CITY           SKY/WX    TMP DP  RH WIND       PRES   REMARKS
TWIN CITIES    CLEAR     67  56  67 SW7       30.01S
ST PAUL        CLEAR     66  56  70 CALM      30.01R
CRYSTAL        CLEAR     70  55  59 W10       29.99S
BLAINE         CLEAR     70  55  60 W7        30.00S
LAKEVILLE      CLEAR     61  55  82 W3        30.03S
EDEN PRAIRIE   CLEAR     62  56  80 SW7       30.01S
SOUTH ST PAUL  CLEAR     67  55  67 W8        30.00S
LAKE ELMO      FAIR      66  55  68 SW3       30.01S
$$
MNZ001>005-007-008-013>017-022>024-027-028-300900-
   Northwest Minnesota

CITY           SKY/WX    TMP DP  RH WIND       PRES   REMARKS
BEMIDJI        CLEAR     62  56  83 W6        29.94R
HALLOCK        CLEAR     57  55  94 CALM      29.90S
ROSEAU         CLEAR     59  54  82 W6        29.90R
WARROAD        CLEAR     57  54  88 W6        29.89S
THIEF RVR FALL CLEAR     61  55  82 W8        29.93S
CROOKSTON      CLEAR     61  57  88 W7        29.94S
FOSSTON        CLEAR     55  54  94 CALM      29.96R
DETROIT LAKES  CLEAR     66  54  63 W12       30.00R
MOORHEAD       CLEAR     61  55  82 W8        29.98S
PARK RAPIDS    CLEAR     61  55  81 W7        29.97S
MAHNOMEN       FAIR      61  56  85 W7        29.96S
$$
MNZ006-009>011-018-025>026-300900-
   North Central Minnesota

CITY           SKY/WX    TMP DP  RH WIND       PRES   REMARKS
BAUDETTE       CLEAR     58  53  84 W6        29.87S
FLAG ISLAND    CLEAR     63  57  82 W13       29.86R
INTL FALLS     CLEAR     58  54  86 W7        29.84R
WASKISH        CLEAR     66  57  72 W13G18    29.89S
BIG FORK       CLEAR     59  54  82 SW6       29.90R
LONGVILLE      CLEAR     64  57  77 W6        29.94S
GRAND RAPIDS   CLEAR     64  54  68 W8        29.92S
CRANE LAKE     CLEAR     61  54  77 W6        29.84R
ORR            CLEAR     61  50  67 W8        29.84R
COOK           CLEAR     61  52  72 W6        29.87R
WALKER         FAIR      63  56  78 W6        29.94S
$$
MNZ012-019>021-037-300900-
   Northeast Minnesota

CITY           SKY/WX    TMP DP  RH WIND       PRES   REMARKS
DULUTH         CLEAR     60  54  80 W12       29.89R
ELY            CLEAR     61  52  72 W9        29.83R
HIBBING        CLEAR     63  53  70 W5        29.89R
EVELETH        CLEAR     59  52  77 SW7       29.89R
DULUTH HARBOR  CLEAR     66  57  72 SW14      29.88R
TWO HARBORS    CLEAR     68  55  64 W9        29.83S
SILVER BAY     CLEAR     64  52  63 W6        29.81R
GRAND MARAIS     N/A     48  44  86 SW9       29.72S
G MARAIS ARPRT   N/A     63  50  63 W10G22    29.77R
$$
MNZ029>031-032-039>041-046>048-054>057-064-300900-
   West Central Minnesota

CITY           SKY/WX    TMP DP  RH WIND       PRES   REMARKS
FERGUS FALLS   CLEAR     59  54  82 SW5       30.01R
WHEATON        CLEAR     61  54  77 SW9       30.04S
MORRIS         CLEAR     63  54  72 W9        30.03R
ALEXANDRIA     CLEAR     65  55  70 W9        30.03S
ELBOW LAKE     FAIR      60  54  80 W7        30.02S
WADENA         CLEAR     61  55  82 SW3       29.99R
GLENWOOD       CLEAR     63  57  82 SW9       30.04R
APPLETON       CLEAR     57  54  88 W6        30.04S
BENSON         CLEAR     61  54  77 W6        30.04R
ORTONVILLE     CLEAR     64  50  59 W9        30.05S
MADISON        CLEAR     57  52  82 SW5       30.06S
WILLMAR        FAIR      59  55  88 SW5       30.05S
$$
MNZ033>034-036-042>043-049>051-058-059-300900-
   Central Minnesota

CITY           SKY/WX    TMP DP  RH WIND       PRES   REMARKS
ST CLOUD       CLEAR     63  55  75 W6        30.00R
SAUK CENTRE    FAIR      60  55  84 W6        30.02S
PAYNESVILLE    CLEAR     55  54  94 SW6       30.03S
AITKIN         CLEAR     64  55  72 SW3       29.94R
PINE RIVER     CLEAR     63  55  77 CALM      29.99S
BRAINERD       CLEAR     66  56  70 W9        29.97R
STAPLES        CLEAR     61  54  77 SW6       29.98S
LONG PRAIRIE   FAIR      61  54  77 SW6       30.01F
LITTLE FALLS   CLEAR     63  54  72 W5        29.99S
LITCHFIELD     CLEAR     64  55  72 W3        30.04R
BUFFALO        CLEAR     64  56  75 SW3       30.02S
MAPLE LAKE     CLEAR     64  57  77 SW5       30.02S
$$
MNZ037-044-045-052-053-300900-
   East Central Minnesota

CITY           SKY/WX    TMP DP  RH WIND       PRES   REMARKS
PRINCETON      CLEAR     64  55  72 SW6       29.99S
MORA           CLEAR     64  55  72 W7        29.99R
CAMBRIDGE      CLEAR     70  55  60 W6        29.97R
RUSH CITY      PTCLDY    67  56  69 W8        29.97S
MOOSE LAKE     CLEAR     63  55  77 SW5       29.92R
HINCKLEY       FAIR      61  55  82 W7        29.96R
CLOQUET        CLEAR     64  54  68 W10       29.91S
MCGREGOR       CLEAR     64  55  72 W7        29.94S
$$
MNZ071>073-080-081-089-090-097-098-300900-
   Southwest Minnesota

CITY           SKY/WX    TMP DP  RH WIND       PRES   REMARKS
MONTEVIDEO     CLEAR     61  54  77 W7        30.07S
GRANITE FALLS  CLEAR     58  54  86 SW6       30.07S
CANBY          CLEAR     65  51  60 SW9       30.09R
MARSHALL       CLEAR     63  52  67 SW10      30.09S
REDWOOD FALLS  CLEAR     65  54  67 SW10      30.06S
OLIVIA         CLEAR     55  52  88 W7        30.05S
PIPESTONE      CLEAR     59  54  82 CALM      30.13S
WINDOM         CLEAR     61  55  82 CALM      30.11S
WORTHINGTON    CLEAR     61  54  77 SW8       30.13S
JACKSON        CLEAR     61  55  82 SW5       30.12S
TRACY          CLEAR     63  55  77 SW8       30.10S
SLAYTON        CLEAR     62  54  74 CALM      30.13S
$$
MNZ065>067-074>077-082>085-091>093-300900-
   South Central Minnesota

CITY           SKY/WX    TMP DP  RH WIND       PRES   REMARKS
MANKATO        CLEAR     63  54  72 W8        30.06S
NEW ULM        CLEAR     59  55  88 W5        30.07R
ST JAMES       CLEAR     63  57  82 SW6       30.09S
FAIRMONT       CLEAR     64  52  63 SW8       30.09S
GLENCOE        CLEAR     61  57  85 SW5       30.03S
FARIBAULT      CLEAR     61  57  88 SW6       30.06S
OWATONNA       CLEAR     61  55  82 SW7       30.07R
WASECA         CLEAR     55  54  94 CALM      30.09R
ALBERT LEA     CLEAR     64  57  77 CALM      30.09S
$$
MNZ078>079-086>088-094>096-300900-
   Southeast Minnesota

CITY           SKY/WX    TMP DP  RH WIND       PRES   REMARKS
ROCHESTER      CLEAR     61  55  81 W10       30.07S
RED WING       CLEAR     63  55  77 W3        30.01R
STANTON        CLEAR     62  56  80 S3        30.03R
DODGE CENTER   CLEAR     57  55  94 W7        30.07R
WINONA         CLEAR     63  55  77 CALM      30.02S
AUSTIN         CLEAR     63  57  82 W5        30.08S
PRESTON        CLEAR     62  55  78 W10       30.07S
$$
ABBREVIATIONS USED IN REMARKS
   TC - TEMPERATURES IN CELSIUS
  WCI - WIND CHILL INDEX
   HX - HEAT INDEX
  VSB - VISIBILITY
$$



USA.gov is the U.S. government's official web portal to all federal, state and local government web resources and services.